Overview Statistics Trail Chart Weather Telemetry Raw packets
 

This is the latest recevied weather packets stored in our database for station/object DF1GD-10. If no packets are shown the sender has not sent any weather packets the latest 10 day(s).

<< 25 26 27 28 29 30 31 >>
Time Temp. Humidity Pressure Rain* Wind** Luminosity Snow
1788100642 25.56° C 33% 1014.3 hPa - - - -
1788099742 25.56° C 33% 1014.4 hPa - - - -
1788098842 25° C 34% 1014.5 hPa - - - -
1788097941 25.56° C 35% 1014.7 hPa - - - -
1788097040 24.44° C 39% 1014.8 hPa - - - -
1788096140 23.33° C 41% 1014.9 hPa - - - -
1788095240 22.78° C 44% 1014.9 hPa - - - -
1788094340 21.67° C 47% 1015.1 hPa - - - -
1788093440 21.67° C 47% 1015.5 hPa - - - -
1788092540 21.11° C 53% 1015.4 hPa - - - -
1788091640 20.56° C 54% 1015.5 hPa - - - -
1788090739 21.11° C 57% 1015.7 hPa - - - -
1788089839 18.89° C 64% 1015.8 hPa - - - -
1788088939 17.78° C 69% 1015.8 hPa - - - -
1788088039 17.78° C 67% 1015.9 hPa - - - -
1788087139 17.22° C 72% 1015.9 hPa - - - -
1788086239 16.67° C 74% 1016.2 hPa - - - -
1788085338 17.22° C 70% 1016.4 hPa - - - -
1788084438 17.22° C 67% 1016.3 hPa - - - -
1788083538 17.22° C 68% 1016.3 hPa - - - -
1788082638 16.67° C 70% 1016.3 hPa - - - -
1788081738 16.67° C 71% 1016.1 hPa - - - -
1788080838 16.11° C 73% 1016.1 hPa - - - -
1788079938 16.11° C 75% 1016.1 hPa - - - -
1788079037 16.11° C 76% 1016 hPa - - - -

* Rain since midnight (hover to see other rain measurements)
** Current wind speed in m/s (hover to see current wind gust speed)